Location: Manchester NH
(43.0000°N, 71.5000°W)
Time: 16:12:44
(UTC-04:00)

N. Korean satellite - Visible Passes

Search period start: 22 October 2019 00:00
Search period end: 01 November 2019 00:00
Orbit: 455 x 508 km, 97.2° (Epoch: 21 October)

Date Brightness Start Highest point End Pass type
(mag) Time Alt. Az. Time Alt. Az. Time Alt. Az.
22 Oct 8.5 06:15:40 10° NNE 06:19:03 36° E 06:22:27 10° SSE visible
22 Oct 8.8 18:25:26 10° SSW 18:28:30 30° W 18:31:36 10° NNW visible
23 Oct 9.8 05:51:01 10° NE 05:53:36 18° E 05:56:13 10° SE visible
25 Oct 7.2 06:32:54 10° NNE 06:36:33 62° E 06:40:12 10° S visible
25 Oct 9.7 18:43:32 10° SW 18:46:02 19° W 18:48:33 10° NW visible
26 Oct 8.9 06:07:54 10° NE 06:11:10 29° E 06:14:26 10° SSE visible
26 Oct 8.2 18:17:20 10° SSW 18:20:34 38° W 18:23:52 10° NNW visible
27 Oct 10.1 05:43:29 10° NE 05:45:42 15° E 05:47:54 10° SE visible
28 Oct 10.3 19:02:20 10° WSW 19:03:35 12° W 19:04:51 10° WNW visible
29 Oct 7.8 06:25:03 10° NNE 06:28:39 49° E 06:32:15 10° S visible
29 Oct 9.3 18:35:14 10° SSW 18:38:04 23° W 18:40:55 10° NW visible
30 Oct 9.3 06:00:11 10° NE 06:03:14 24° E 06:06:18 10° SSE visible
30 Oct 7.6 18:09:15 10° S 18:12:37 49° W 18:16:04 10° NNW visible
31 Oct 10.3 05:36:06 10° ENE 05:37:44 12° E 05:39:21 10° ESE visible
